This demonstration page uses our WeatherBlox Daily Observations layout. Learn more.

Left ArrowRight Arrow

53.62937, 11.41316

Hourly Observations for April 23, 2022

Temp ( °F °C ) Dew Point ( °F °C ) Humidity (%) Winds ( mph kmh ) Pressure ( in mb ) Visibility ( mi km ) Precip ( " mm )
12:20 am 00:20 Mostly Clear 45 7 39 4 81 81 ENE 9 15 29.89 1012 30 48 N/A
12:50 am 00:50 Mostly Clear 45 7 39 4 81 81 NE 8 13 29.89 1012 30 48 N/A
1:20 am 01:20 Mostly Clear 43 6 39 4 87 87 ENE 8 13 29.92 1013 30 48 N/A
1:50 am 01:50 Mostly Clear 41 5 37 3 87 87 NE 5 7 29.92 1013 30 48 N/A
2:20 am 02:20 Mostly Clear 43 6 39 4 87 87 NE 5 7 29.92 1013 30 48 N/A
2:50 am 02:50 Mostly Clear 43 6 39 4 87 87 NNE 5 7 29.92 1013 30 48 N/A
3:20 am 03:20 Mostly Clear 41 5 39 4 93 93 NE 5 7 29.92 1013 30 48 N/A
3:50 am 03:50 Mostly Clear 39 4 37 3 93 93 NE 5 7 29.92 1013 30 48 N/A
4:20 am 04:20 Mostly Clear 39 4 37 3 93 93 NE 5 7 29.92 1013 30 48 N/A
4:50 am 04:50 Mostly Clear 41 5 39 4 93 93 NE 3 6 29.92 1013 30 48 N/A
5:20 am 05:20 Mostly Clear 41 5 39 4 93 93 NNE 3 6 29.92 1013 5 8 N/A
5:50 am 05:50 Mostly Clear 39 4 39 4 100 100 NE 3 6 29.92 1013 4 6 N/A
6:20 am 06:20 Mostly Sunny 39 4 39 4 100 100 ENE 5 7 29.92 1013 3 5 N/A
6:50 am 06:50 Mostly Sunny 37 3 37 3 100 100 ENE 6 9 29.92 1013 3 5 N/A
7:20 am 07:20 Mostly Sunny 41 5 41 5 100 100 ENE 6 9 29.92 1013 30 48 N/A
7:50 am 07:50 Mostly Sunny 45 7 43 6 93 93 NE 7 11 29.92 1013 7 11 N/A
8:20 am 08:20 Mostly Sunny 46 8 43 6 87 87 ENE 7 11 29.92 1013 7 11 N/A
8:50 am 08:50 Mostly Sunny 48 9 41 5 76 76 ENE 7 11 29.92 1013 7 11 N/A
9:20 am 09:20 Mostly Sunny 52 11 41 5 67 67 E 6 9 29.91 1013 7 11 N/A
9:50 am 09:50 Mostly Sunny 54 12 39 4 58 58 E 7 11 29.91 1013 7 11 N/A
10:20 am 10:20 Mostly Sunny 55 13 39 4 55 55 E 7 11 29.91 1013 7 11 N/A
10:50 am 10:50 Mostly Sunny 55 13 37 3 51 51 E 9 15 29.91 1013 30 48 N/A
11:20 am 11:20 Mostly Sunny 59 15 39 4 48 48 ESE 9 15 29.91 1013 30 48 N/A
11:50 am 11:50 Mostly Sunny 59 15 37 3 45 45 E 12 19 29.88 1012 30 48 N/A
12:20 pm 12:20 Mostly Sunny 57 14 41 5 55 55 NNE 15 24 29.88 1012 30 48 N/A
12:50 pm 12:50 Mostly Sunny 59 15 41 5 51 51 NE 14 22 29.88 1012 7 11 N/A
1:20 pm 13:20 Mostly Sunny 57 14 41 5 55 55 NE 13 20 29.88 1012 30 48 N/A
1:50 pm 13:50 Mostly Sunny 57 14 39 4 51 51 NE 15 24 29.88 1012 7 11 N/A
2:20 pm 14:20 Mostly Sunny 57 14 41 5 55 55 NE 16 26 29.88 1012 7 11 N/A
2:50 pm 14:50 Mostly Sunny 57 14 39 4 51 51 NE 16 26 29.86 1011 7 11 N/A
3:20 pm 15:20 Mostly Sunny 57 14 39 4 51 51 NE 16 26 29.86 1011 7 11 N/A
3:50 pm 15:50 Mostly Sunny 59 15 41 5 51 51 NE 15 24 29.85 1011 7 11 N/A
4:20 pm 16:20 Mostly Sunny 57 14 41 5 55 55 NE 17 28 29.83 1010 7 11 N/A
4:50 pm 16:50 Mostly Sunny 55 13 41 5 59 59 NNE 15 24 29.83 1010 7 11 N/A
5:20 pm 17:20 Mostly Sunny 55 13 43 6 63 63 NE 14 22 29.83 1010 7 11 N/A
5:50 pm 17:50 Mostly Sunny 55 13 43 6 63 63 NE 15 24 29.83 1010 7 11 N/A
6:20 pm 18:20 Mostly Sunny 55 13 41 5 59 59 NE 16 26 29.83 1010 7 11 N/A
6:50 pm 18:50 Mostly Sunny 54 12 39 4 58 58 NE 17 28 29.83 1010 7 11 N/A
7:20 pm 19:20 Mostly Sunny 54 12 37 3 54 54 NE 14 22 29.83 1010 7 11 N/A
7:50 pm 19:50 Mostly Sunny 52 11 37 3 58 58 NE 16 26 29.83 1010 7 11 N/A
8:20 pm 20:20 Mostly Sunny 52 11 39 4 62 62 ENE 13 20 29.83 1010 7 11 N/A
8:50 pm 20:50 Mostly Clear 50 10 39 4 67 67 ENE 13 20 29.83 1010 7 11 N/A
9:20 pm 21:20 Mostly Clear 48 9 37 3 66 66 ENE 10 17 29.83 1010 30 48 N/A
9:50 pm 21:50 Mostly Clear 45 7 37 3 76 76 ENE 9 15 29.83 1010 30 48 N/A
10:20 pm 22:20 Mostly Clear 43 6 37 3 81 81 ENE 7 11 29.83 1010 30 48 N/A
10:50 pm 22:50 Mostly Clear 45 7 37 3 76 76 NE 5 7 29.83 1010 30 48 N/A
11:20 pm 23:20 Mostly Clear 43 6 37 3 81 81 NE 6 9 29.83 1010 30 48 N/A
11:50 pm 23:50 Mostly Clear 41 5 36 2 81 81 NE 6 9 29.83 1010 30 48 N/A

Powered by AerisWeather